M I D A S
Marine Information and Data Acquisition System
Tripno 2092 of the Zeeleeuw from 2011-01-27 07:49:23 to 2011-01-27 16:19:56
Back to CruiseResearch ActivitiesStationsMapUnderway DataData graphs

EquipmentUnitsComments
TimeDGPSUTC
LatitudeDGPSDM.mWGS84
LongitudeDGPSDM.mWGS84
SpeedMeteo Stationm/sRelative wind speed
DirectionMeteo StationdegRelative wind direction
TemperatureMeteo Stationdeg CelciusAir temperature
PressureMeteo StationPaAtmospheric pressure
HumidityMeteo Station%Relative humidity
Missing or incorrect values are displayed as -999
Metereological data collected by the RV Zeeleeuw from 2011-01-27 07:50:34 to 2011-01-27 16:27:18
Time Latitude Longitude Speed Direction Temperature Pressure Humidity
2011-01-27 07:51 51°13.682 2°55.869 0.1 289 1 101930 42
2011-01-27 07:52 51°13.713 2°55.749 0.1 279 1 101920 43
2011-01-27 07:53 51°13.774 2°55.666 2.4 294 1 101930 43
2011-01-27 07:54 51°13.871 2°55.624 5.5 80 1 101930 42
2011-01-27 07:55 51°13.946 2°55.638 0.1 77 1 101930 43
2011-01-27 07:56 51°13.964 2°55.646 0.1 76 1.1 101930 43
2011-01-27 07:57 51°13.987 2°55.566 2.9 1 1.1 101920 43
2011-01-27 07:58 51°14.102 2°55.442 0.1 347 1.1 101910 43
2011-01-27 07:59 51°14.253 2°55.302 5.9 355 1.1 101910 43
2011-01-27 08:00 51°14.402 2°55.143 5.6 355 1.1 101900 44
2011-01-27 08:01 51°14.56 2°54.969 8 -999 1.3 101900 44
2011-01-27 08:02 51°14.736 2°54.776 8.5 360 1.5 101900 43
2011-01-27 08:03 51°14.92 2°54.571 8.5 -999 1.6 101890 42
2011-01-27 08:04 51°15.091 2°54.377 8.5 2 1.6 101890 42
2011-01-27 08:05 51°15.256 2°54.165 8.7 8 1.7 101910 42
2011-01-27 08:06 51°15.424 2°53.956 8.4 3 1.7 101900 42
2011-01-27 08:07 51°15.6 2°53.738 9.5 2 1.7 101910 41
2011-01-27 08:08 51°15.771 2°53.528 9.1 -999 1.8 101890 41
2011-01-27 08:09 51°15.97 2°53.384 9.2 5 1.8 101890 39
2011-01-27 08:10 51°16.163 2°53.234 7.1 3 1.8 101900 40
2011-01-27 08:11 51°16.359 2°53.079 9.1 6 2 101900 41
2011-01-27 08:12 51°16.561 2°52.932 7.8 5 2 101890 41
2011-01-27 08:13 51°16.755 2°52.79 10 7 2 101900 41
2011-01-27 08:14 51°16.96 2°52.642 7.8 6 1.9 101900 40
2011-01-27 08:15 51°17.159 2°52.496 10.6 -999 1.9 101910 38
2011-01-27 08:16 51°17.359 2°52.35 6.7 6 2 101920 41
2011-01-27 08:17 51°17.557 2°52.202 11.3 5 2.1 101920 41
2011-01-27 08:18 51°17.761 2°52.047 8.3 6 1.9 101900 39
2011-01-27 08:19 51°17.968 2°51.948 12.6 355 2 101920 40
2011-01-27 08:20 51°18.184 2°51.887 11.4 -999 2 101900 40
2011-01-27 08:21 51°18.396 2°51.804 10.8 358 2.1 101910 40
2011-01-27 08:22 51°18.605 2°51.713 10.4 3 2 101910 39
2011-01-27 08:23 51°18.813 2°51.623 12.9 355 2 101920 40
2011-01-27 08:24 51°19.027 2°51.528 11.3 -999 2.1 101910 40
2011-01-27 08:25 51°19.231 2°51.393 9.2 6 2 101930 39
2011-01-27 08:26 51°19.434 2°51.247 12.3 -999 2.1 101930 39
2011-01-27 08:27 51°19.639 2°51.103 10.2 6 2.1 101940 40
2011-01-27 08:28 51°19.842 2°50.955 10.1 1 2.1 101950 39
2011-01-27 08:29 51°20.042 2°50.81 10.2 6 2.1 101930 39
2011-01-27 08:30 51°20.243 2°50.675 12.3 357 2.2 101950 41
2011-01-27 08:31 51°20.448 2°50.532 10 2 2.2 101940 40
2011-01-27 08:32 51°20.649 2°50.382 13.2 359 2.1 101940 40
2011-01-27 08:33 51°20.844 2°50.236 10.4 3 2.2 101940 41
2011-01-27 08:34 51°21.042 2°50.089 13.5 359 2.2 101940 41
2011-01-27 08:35 51°21.243 2°49.937 9.5 3 2.2 101940 39
2011-01-27 08:36 51°21.447 2°49.788 11.1 2 2.2 101950 40
2011-01-27 08:37 51°21.655 2°49.641 12.1 358 2.2 101950 40
2011-01-27 08:38 51°21.859 2°49.497 8.5 5 2.2 101920 40
2011-01-27 08:39 51°22.065 2°49.352 9.3 4 2.3 101930 40
2011-01-27 08:40 51°22.264 2°49.206 12.4 1 2.3 101910 40
2011-01-27 08:41 51°22.467 2°49.061 10.4 1 2.2 101920 40
2011-01-27 08:42 51°22.672 2°48.91 12.1 -999 2.3 101940 39
2011-01-27 08:43 51°22.873 2°48.765 11 -999 2.3 101930 39
2011-01-27 08:44 51°23.074 2°48.617 11.2 -999 2.3 101950 41
2011-01-27 08:45 51°23.277 2°48.466 9.6 359 2.4 101950 41
2011-01-27 08:46 51°23.48 2°48.322 10.3 4 2.4 101930 40
2011-01-27 08:47 51°23.684 2°48.179 9.9 2 2.4 101950 40
2011-01-27 08:48 51°23.886 2°48.04 8.7 -999 2.4 101950 40
2011-01-27 08:49 51°24.086 2°47.895 8.6 6 2.4 101940 40
2011-01-27 08:50 51°24.285 2°47.759 11.5 8 2.4 101960 40
2011-01-27 08:51 51°24.49 2°47.613 9.1 6 2.4 101960 38
2011-01-27 08:52 51°24.697 2°47.471 11.1 4 2.4 101960 40
2011-01-27 08:53 51°24.898 2°47.331 10.9 4 2.4 101970 40
2011-01-27 08:54 51°25.103 2°47.195 10.1 1 2.4 101950 40
2011-01-27 08:55 51°25.316 2°47.053 12.4 356 2.4 101940 39
2011-01-27 08:56 51°25.522 2°46.913 10.2 4 2.4 101960 40
2011-01-27 08:57 51°25.728 2°46.772 9.1 6 2.4 101940 39
2011-01-27 08:58 51°25.937 2°46.619 10 4 2.4 101970 40
2011-01-27 08:59 51°26.14 2°46.473 10.5 6 2.4 101970 39
2011-01-27 09:00 51°26.347 2°46.324 7.7 7 2.5 101970 40
2011-01-27 09:01 51°26.55 2°46.187 11.3 4 2.5 101950 40
2011-01-27 09:02 51°26.754 2°46.055 14.5 360 2.5 101970 40
2011-01-27 09:03 51°26.962 2°45.926 11.3 5 2.4 101960 38
2011-01-27 09:04 51°27.172 2°45.802 10.7 6 2.4 101960 40
2011-01-27 09:05 51°27.375 2°45.679 8.9 6 2.4 101970 40
2011-01-27 09:06 51°27.589 2°45.55 7.5 4 2.4 101980 39
2011-01-27 09:07 51°27.795 2°45.423 11.4 3 2.5 101990 40
2011-01-27 09:08 51°28.003 2°45.297 10 3 2.5 101970 40
2011-01-27 09:09 51°28.212 2°45.169 8.9 1 2.5 101970 40
2011-01-27 09:10 51°28.421 2°45.045 11.5 4 2.5 101990 40
2011-01-27 09:11 51°28.629 2°44.924 9.6 4 2.6 102000 39
2011-01-27 09:12 51°28.843 2°44.802 11.4 358 2.5 101990 40
2011-01-27 09:13 51°29.049 2°44.677 8.6 -999 2.5 101990 40
2011-01-27 09:14 51°29.26 2°44.55 9.9 4 2.5 101980 40
2011-01-27 09:15 51°29.478 2°44.424 7.9 5 2.5 101980 40
2011-01-27 09:16 51°29.692 2°44.316 12.4 -999 2.5 101980 40
2011-01-27 09:17 51°29.915 2°44.294 14.8 352 2.5 101970 40
2011-01-27 09:18 51°30.139 2°44.3 15.9 352 2.5 101960 39
2011-01-27 09:19 51°30.362 2°44.307 13.8 -999 2.5 101970 38
2011-01-27 09:20 51°30.588 2°44.315 11 353 2.6 101970 41
2011-01-27 09:21 51°30.816 2°44.319 14.3 352 2.5 101990 40
2011-01-27 09:22 51°31.03 2°44.409 15.9 281 2.5 101970 39
2011-01-27 09:23 51°31.217 2°44.497 12.7 350 2.5 101990 39
2011-01-27 09:24 51°31.323 2°44.536 9.5 355 2.5 102010 40
2011-01-27 09:25 51°31.404 2°44.56 11.8 356 2.7 102000 41
2011-01-27 09:26 51°31.495 2°44.588 12.8 352 2.6 102010 42
2011-01-27 09:27 51°31.606 2°44.625 13.2 -999 2.6 102010 41
2011-01-27 09:28 51°31.73 2°44.671 14.9 -999 2.5 101990 39
2011-01-27 09:29 51°31.865 2°44.718 10.7 354 2.5 102000 40
2011-01-27 09:30 51°31.986 2°44.751 13.3 -999 2.5 101990 39
2011-01-27 09:31 51°32.101 2°44.79 14.9 350 2.6 102000 39
2011-01-27 09:32 51°32.215 2°44.827 11.5 -999 2.5 102010 40
2011-01-27 09:33 51°32.331 2°44.87 10.3 355 2.5 102010 39
2011-01-27 09:34 51°32.443 2°44.912 11.9 -999 2.6 102030 41
2011-01-27 09:35 51°32.563 2°44.943 11.5 353 2.6 102030 40
2011-01-27 09:36 51°32.682 2°44.987 13.6 353 2.5 102020 40
2011-01-27 09:37 51°32.807 2°45.028 11.6 350 2.5 102030 41
2011-01-27 09:38 51°32.924 2°45.067 11.6 -999 2.6 102010 39
2011-01-27 09:39 51°33.041 2°45.125 11.7 346 2.6 102010 40
2011-01-27 09:40 51°33.154 2°45.182 11.1 -999 2.6 102020 39
2011-01-27 09:41 51°33.266 2°45.232 14.8 349 2.6 102020 39
2011-01-27 09:42 51°33.375 2°45.279 14.9 -999 2.6 102030 39
2011-01-27 09:43 51°33.489 2°45.319 14.3 350 2.5 102030 38
2011-01-27 09:44 51°33.596 2°45.367 10.8 352 2.5 102020 39
2011-01-27 09:45 51°33.707 2°45.415 11.4 354 2.5 102020 39
2011-01-27 09:46 51°33.814 2°45.491 10.6 279 2.6 102030 39
2011-01-27 09:47 51°33.929 2°45.561 15.3 351 2.6 102030 39
2011-01-27 09:48 51°34.042 2°45.637 12.8 349 2.5 102040 39
2011-01-27 09:49 51°34.156 2°45.707 11.7 346 2.6 102030 39
2011-01-27 09:50 51°34.271 2°45.778 10.6 351 2.5 102030 39
2011-01-27 09:51 51°34.38 2°45.842 10.1 345 2.6 102050 39
2011-01-27 09:52 51°34.485 2°45.919 13.1 347 2.7 102040 40
2011-01-27 09:53 51°34.59 2°46.001 11.7 344 2.6 102050 39
2011-01-27 09:54 51°34.695 2°46.081 15.7 344 2.7 102040 40
2011-01-27 09:55 51°34.8 2°46.17 12.4 345 2.7 102060 39
2011-01-27 09:56 51°34.905 2°46.271 10.4 343 2.7 102060 39
2011-01-27 09:57 51°35.001 2°46.357 14.5 347 2.6 102070 38
2011-01-27 09:58 51°35.109 2°46.438 14.1 352 2.6 102070 39
2011-01-27 09:59 51°35.222 2°46.519 10.4 349 2.7 102060 38
2011-01-27 10:00 51°35.33 2°46.597 14.6 343 2.7 102060 39
2011-01-27 10:01 51°35.439 2°46.682 13.7 347 2.7 102070 39
2011-01-27 10:02 51°35.544 2°46.768 12.7 346 2.7 102050 38
2011-01-27 10:03 51°35.653 2°46.846 15.7 350 2.7 102070 40
2011-01-27 10:04 51°35.767 2°46.932 11.8 347 2.7 102060 39
2011-01-27 10:05 51°35.878 2°47.014 11.1 349 2.7 102060 40
2011-01-27 10:06 51°35.991 2°47.093 13.5 346 2.6 102060 38
2011-01-27 10:07 51°36.104 2°47.176 14.6 349 2.6 102070 38
2011-01-27 10:08 51°36.219 2°47.258 15.2 348 2.5 102070 38
2011-01-27 10:09 51°36.335 2°47.344 14.4 352 2.5 102070 38
2011-01-27 10:10 51°36.447 2°47.426 15.3 349 2.5 102080 38
2011-01-27 10:11 51°36.556 2°47.51 14.1 349 2.6 102080 39
2011-01-27 10:12 51°36.668 2°47.595 15 349 2.5 102070 39
2011-01-27 10:13 51°36.781 2°47.673 10.6 351 2.5 102080 39
2011-01-27 10:14 51°36.892 2°47.756 14.4 347 2.5 102080 39
2011-01-27 10:15 51°37.003 2°47.839 11.5 349 2.5 102070 37
2011-01-27 10:16 51°37.118 2°47.915 14.9 356 2.5 102070 38
2011-01-27 10:17 51°37.264 2°47.905 11.9 4 2.6 102080 39
2011-01-27 10:18 51°37.392 2°47.869 10.5 4 2.6 102100 40
2011-01-27 10:19 51°37.514 2°47.831 5.6 2 2.6 102100 40
2011-01-27 10:20 51°37.625 2°47.746 10 20 2.7 102100 40
2011-01-27 10:21 51°37.703 2°47.568 6.4 24 2.6 102120 39
2011-01-27 10:22 51°37.779 2°47.362 7.9 25 2.6 102120 40
2011-01-27 10:23 51°37.857 2°47.147 7.3 29 2.6 102120 37
2011-01-27 10:24 51°37.932 2°46.94 8.6 -999 2.7 102120 40
2011-01-27 10:25 51°38.007 2°46.736 8.9 26 2.8 102120 40
2011-01-27 10:26 51°38.053 2°46.512 5.4 18 2.7 102140 38
2011-01-27 10:27 51°38.005 2°46.33 6.3 20 2.7 102140 39
2011-01-27 10:28 51°37.913 2°46.192 5.9 269 2.7 102140 40
2011-01-27 10:29 51°37.82 2°46.054 4.3 285 2.8 102140 40
2011-01-27 10:30 51°37.727 2°45.913 6.6 268 2.8 102140 39
2011-01-27 10:31 51°37.62 2°45.81 6.7 285 2.9 102120 37
2011-01-27 10:32 51°37.513 2°45.712 6 267 2.9 102120 38
2011-01-27 10:33 51°37.401 2°45.614 5.6 279 2.8 102120 38
2011-01-27 10:34 51°37.293 2°45.521 5.2 264 2.8 102130 38
2011-01-27 10:35 51°37.183 2°45.435 5.7 269 2.8 102130 39
2011-01-27 10:36 51°37.068 2°45.346 5.8 266 2.9 102120 39
2011-01-27 10:37 51°36.956 2°45.256 8 269 2.9 102140 39
2011-01-27 10:38 51°36.844 2°45.166 5.7 -999 2.9 102130 41
2011-01-27 10:39 51°36.731 2°45.076 6.1 267 2.9 102130 38
2011-01-27 10:40 51°36.616 2°44.998 7.7 259 2.8 102130 41
2011-01-27 10:41 51°36.502 2°44.939 8.1 254 2.9 102130 40
2011-01-27 10:42 51°36.382 2°44.883 11.1 -999 2.9 102130 40
2011-01-27 10:43 51°36.265 2°44.825 8.3 260 2.9 102130 40
2011-01-27 10:44 51°36.142 2°44.762 10 258 2.9 102130 41
2011-01-27 10:45 51°36.023 2°44.702 8.8 279 2.9 102130 39
2011-01-27 10:46 51°35.902 2°44.643 5.8 262 2.9 102130 41
2011-01-27 10:47 51°35.784 2°44.581 9.8 261 2.8 102140 38
2011-01-27 10:48 51°35.663 2°44.518 10.8 282 2.9 102140 41
2011-01-27 10:49 51°35.541 2°44.451 7.1 288 2.9 102130 41
2011-01-27 10:50 51°35.423 2°44.391 12.2 285 2.8 102130 41
2011-01-27 10:51 51°35.3 2°44.326 9.4 -999 2.8 102130 40
2011-01-27 10:52 51°35.18 2°44.265 8.7 278 2.8 102130 41
2011-01-27 10:53 51°35.058 2°44.2 8.6 -999 2.8 102140 40
2011-01-27 10:54 51°34.94 2°44.138 8.9 286 2.8 102130 40
2011-01-27 10:55 51°34.819 2°44.078 9.2 286 2.8 102130 39
2011-01-27 10:56 51°34.699 2°44.017 6.9 283 2.9 102130 41
2011-01-27 10:57 51°34.581 2°43.951 8 -999 2.9 102120 41
2011-01-27 10:58 51°34.464 2°43.884 9.6 283 2.9 102120 41
2011-01-27 10:59 51°34.349 2°43.83 8.9 -999 2.9 102120 40
2011-01-27 11:00 51°34.24 2°43.779 6.7 285 2.9 102120 41
2011-01-27 11:01 51°34.13 2°43.722 10.2 -999 2.9 102110 41
2011-01-27 11:02 51°34.016 2°43.668 10.4 285 2.9 102120 41
2011-01-27 11:03 51°33.904 2°43.616 6.2 -999 2.9 102120 39
2011-01-27 11:04 51°33.791 2°43.553 7.8 284 2.9 102120 41
2011-01-27 11:05 51°33.677 2°43.476 7.9 286 2.8 102130 41
2011-01-27 11:06 51°33.567 2°43.402 6.2 286 2.8 102130 40
2011-01-27 11:07 51°33.463 2°43.302 5.3 -999 2.7 102130 40
2011-01-27 11:08 51°33.382 2°43.156 4.9 74 2.6 102130 40
2011-01-27 11:09 51°33.315 2°42.985 5.3 -999 2.6 102130 41
2011-01-27 11:10 51°33.251 2°42.823 4.8 73 2.6 102130 41
2011-01-27 11:11 51°33.187 2°42.656 6.2 76 2.7 102130 40
2011-01-27 11:12 51°33.126 2°42.491 6.4 75 2.6 102130 39
2011-01-27 11:13 51°33.066 2°42.318 5.6 -999 2.6 102120 39
2011-01-27 11:14 51°33.01 2°42.144 4.5 79 2.7 102130 41
2011-01-27 11:15 51°32.954 2°41.968 5 77 2.7 102130 40
2011-01-27 11:16 51°32.897 2°41.794 6.2 74 2.7 102130 40
2011-01-27 11:17 51°32.839 2°41.614 5.4 -999 2.5 102140 40
2011-01-27 11:18 51°32.783 2°41.434 5 79 2.6 102130 40
2011-01-27 11:19 51°32.749 2°41.247 4.6 -999 2.6 102130 41
2011-01-27 11:20 51°32.754 2°41.046 6.6 37 2.7 102130 40
2011-01-27 11:21 51°32.801 2°40.88 7.7 21 2.7 102130 40
2011-01-27 11:22 51°32.898 2°40.788 12 8 2.7 102120 41
2011-01-27 11:23 51°33.012 2°40.794 12.8 -999 2.6 102100 41
2011-01-27 11:24 51°33.121 2°40.809 13.7 356 2.5 102090 41
2011-01-27 11:25 51°33.232 2°40.867 13.6 -999 2.5 102080 41
2011-01-27 11:26 51°33.338 2°40.928 11.6 351 2.5 102090 42
2011-01-27 11:27 51°33.456 2°40.986 13.6 -999 2.4 102080 40
2011-01-27 11:28 51°33.57 2°41.038 10.4 351 2.4 102100 41
2011-01-27 11:29 51°33.67 2°41.086 13.2 -999 2.3 102090 41
2011-01-27 11:30 51°33.763 2°41.13 11.1 355 2.4 102090 41
2011-01-27 11:31 51°33.862 2°41.178 10.6 -999 2.3 102110 41
2011-01-27 11:32 51°33.965 2°41.225 11.1 354 2.5 102100 42
2011-01-27 11:33 51°34.071 2°41.274 11.5 -999 2.3 102090 41
2011-01-27 11:34 51°34.176 2°41.323 12.9 348 2.4 102090 42
2011-01-27 11:35 51°34.283 2°41.368 9.7 -999 2.4 102090 39
2011-01-27 11:36 51°34.389 2°41.415 11 353 2.4 102100 42
2011-01-27 11:37 51°34.492 2°41.466 9.9 281 2.4 102090 41
2011-01-27 11:38 51°34.594 2°41.509 9.8 280 2.4 102090 40
2011-01-27 11:39 51°34.698 2°41.559 11.6 -999 2.4 102090 41
2011-01-27 11:40 51°34.792 2°41.6 9.6 350 2.4 102090 41
2011-01-27 11:41 51°34.89 2°41.642 10.5 352 2.4 102090 40
2011-01-27 11:42 51°34.991 2°41.685 10.9 278 2.4 102090 41
2011-01-27 11:43 51°35.091 2°41.722 10.1 350 2.4 102090 38
2011-01-27 11:44 51°35.195 2°41.762 10.4 352 2.4 102090 40
2011-01-27 11:45 51°35.296 2°41.802 9.8 350 2.4 102100 40
2011-01-27 11:46 51°35.396 2°41.844 13 353 2.5 102090 40
2011-01-27 11:47 51°35.5 2°41.886 10.4 350 2.5 102080 40
2011-01-27 11:48 51°35.597 2°41.922 10 353 2.5 102080 40
2011-01-27 11:49 51°35.69 2°41.96 11.9 349 2.5 102090 40
2011-01-27 11:50 51°35.788 2°42.001 9.8 355 2.5 102080 40
2011-01-27 11:51 51°35.888 2°42.038 10.7 353 2.5 102090 38
2011-01-27 11:52 51°35.983 2°42.075 11.6 353 2.6 102080 40
2011-01-27 11:53 51°36.074 2°42.109 10.2 353 2.7 102080 41
2011-01-27 11:54 51°36.17 2°42.146 10.1 349 2.6 102090 40
2011-01-27 11:55 51°36.264 2°42.184 12.1 347 2.6 102080 39
2011-01-27 11:56 51°36.36 2°42.222 11.9 350 2.5 102090 39
2011-01-27 11:57 51°36.454 2°42.26 9.7 278 2.5 102080 39
2011-01-27 11:58 51°36.545 2°42.298 11.1 348 2.6 102090 39
2011-01-27 11:59 51°36.638 2°42.337 10.1 351 2.6 102090 39
2011-01-27 12:00 51°36.736 2°42.374 12.3 349 2.7 102100 41
2011-01-27 12:01 51°36.832 2°42.412 11.9 282 2.7 102100 41
2011-01-27 12:02 51°36.91 2°42.437 12.9 285 2.6 102100 40
2011-01-27 12:03 51°36.999 2°42.473 10.5 347 2.5 102100 40
2011-01-27 12:04 51°37.094 2°42.519 12.6 283 2.6 102100 40
2011-01-27 12:05 51°37.185 2°42.571 10 283 2.6 102090 40
2011-01-27 12:06 51°37.277 2°42.619 10.9 348 2.5 102090 40
2011-01-27 12:07 51°37.367 2°42.667 11.3 283 2.6 102110 41
2011-01-27 12:08 51°37.457 2°42.713 10.8 282 2.6 102100 41
2011-01-27 12:09 51°37.549 2°42.763 10.2 285 2.5 102100 40
2011-01-27 12:10 51°37.637 2°42.808 14 347 2.6 102100 41
2011-01-27 12:11 51°37.731 2°42.851 10.3 281 2.6 102100 42
2011-01-27 12:12 51°37.824 2°42.894 12.7 347 2.7 102100 42
2011-01-27 12:13 51°37.918 2°42.938 13.1 347 2.6 102110 42
2011-01-27 12:14 51°38.01 2°42.981 11.9 281 2.5 102090 41
2011-01-27 12:15 51°38.104 2°43.029 11.3 281 2.5 102090 40
2011-01-27 12:16 51°38.198 2°43.076 13.2 284 2.5 102110 41
2011-01-27 12:17 51°38.291 2°43.122 11.2 282 2.4 102090 40
2011-01-27 12:18 51°38.382 2°43.168 11.6 278 2.4 102100 41
2011-01-27 12:19 51°38.463 2°43.201 10.8 278 2.4 102110 39
2011-01-27 12:20 51°38.562 2°43.248 14.2 353 2.4 102100 40
2011-01-27 12:21 51°38.664 2°43.305 13.3 353 2.5 102100 40
2011-01-27 12:22 51°38.776 2°43.358 12.9 350 2.5 102070 39
2011-01-27 12:23 51°38.876 2°43.409 13.8 348 2.4 102090 39
2011-01-27 12:24 51°38.981 2°43.47 10.2 350 2.4 102100 40
2011-01-27 12:25 51°39.093 2°43.527 14.1 352 2.4 102090 40
2011-01-27 12:26 51°39.196 2°43.581 14.5 349 2.3 102080 39
2011-01-27 12:27 51°39.307 2°43.638 13.5 350 2.4 102090 39
2011-01-27 12:28 51°39.422 2°43.702 14.8 354 2.4 102090 39
2011-01-27 12:29 51°39.529 2°43.757 13.5 352 2.4 102090 39
2011-01-27 12:30 51°39.639 2°43.818 13.1 348 2.4 102090 39
2011-01-27 12:31 51°39.75 2°43.877 12.8 346 2.3 102100 39
2011-01-27 12:32 51°39.864 2°43.936 11.9 278 2.4 102100 40
2011-01-27 12:33 51°39.977 2°43.998 12.2 352 2.5 102100 42
2011-01-27 12:34 51°40.078 2°44.054 14.2 350 2.5 102090 42
2011-01-27 12:35 51°40.186 2°44.104 12.7 279 2.5 102080 41
2011-01-27 12:36 51°40.29 2°44.163 11.4 284 2.5 102100 41
2011-01-27 12:37 51°40.4 2°44.225 13 349 2.4 102090 40
2011-01-27 12:38 51°40.503 2°44.283 13.7 349 2.4 102080 40
2011-01-27 12:39 51°40.599 2°44.331 13.1 348 2.3 102080 39
2011-01-27 12:40 51°40.692 2°44.382 12.4 350 2.3 102080 38
2011-01-27 12:41 51°40.795 2°44.43 11.5 351 2.4 102110 40
2011-01-27 12:42 51°40.902 2°44.489 10.8 283 2.3 102100 39
2011-01-27 12:43 51°41.009 2°44.542 14 -999 2.3 102090 39
2011-01-27 12:44 51°41.113 2°44.598 11.7 -999 2.3 102090 38
2011-01-27 12:45 51°41.22 2°44.653 13.5 278 2.4 102090 40
2011-01-27 12:46 51°41.325 2°44.706 13.3 -999 2.3 102090 39
2011-01-27 12:47 51°41.431 2°44.763 15.8 348 2.4 102090 38
2011-01-27 12:48 51°41.534 2°44.813 14.4 -999 2.4 102090 40
2011-01-27 12:49 51°41.637 2°44.866 15.7 352 2.4 102080 39
2011-01-27 12:50 51°41.739 2°44.918 13.5 -999 2.3 102080 39
2011-01-27 12:51 51°41.838 2°44.97 11.9 346 2.4 102080 40
2011-01-27 12:52 51°41.943 2°45.028 11.5 351 2.3 102110 39
2011-01-27 12:53 51°42.052 2°45.087 12.2 350 2.4 102110 40
2011-01-27 12:54 51°42.156 2°45.142 14.6 350 2.4 102110 39
2011-01-27 12:55 51°42.254 2°45.198 17.4 349 2.4 102100 38
2011-01-27 12:56 51°42.359 2°45.259 10.6 347 2.3 102110 39
2011-01-27 12:57 51°42.463 2°45.322 14.6 286 2.3 102130 38
2011-01-27 12:58 51°42.567 2°45.382 12.1 347 2.4 102130 39
2011-01-27 12:59 51°42.669 2°45.439 13.6 347 2.5 102110 39
2011-01-27 13:00 51°42.772 2°45.498 15.6 345 2.4 102110 39
2011-01-27 13:01 51°42.876 2°45.553 13.8 282 2.4 102110 39
2011-01-27 13:02 51°42.985 2°45.616 10.3 343 2.5 102120 40
2011-01-27 13:03 51°43.088 2°45.643 14.3 1 2.4 102120 39
2011-01-27 13:04 51°43.198 2°45.567 9.9 2 2.3 102120 39
2011-01-27 13:05 51°43.293 2°45.487 9.9 3 2.4 102120 39
2011-01-27 13:06 51°43.405 2°45.402 13.3 -999 2.3 102110 38
2011-01-27 13:07 51°43.512 2°45.324 10.4 1 2.3 102120 38
2011-01-27 13:08 51°43.624 2°45.242 10.4 6 2.4 102130 39
2011-01-27 13:09 51°43.731 2°45.145 13.5 9 2.4 102140 39
2011-01-27 13:10 51°43.834 2°45.023 10.1 -999 2.3 102130 40
2011-01-27 13:11 51°43.93 2°44.888 11 6 2.4 102150 39
2011-01-27 13:12 51°43.998 2°44.708 8.6 30 2.4 102140 40
2011-01-27 13:13 51°43.965 2°44.492 3.3 21 2.4 102170 38
2011-01-27 13:14 51°43.882 2°44.314 6.9 27 2.5 102160 39
2011-01-27 13:15 51°43.794 2°44.146 7.2 20 2.3 102160 37
2011-01-27 13:16 51°43.679 2°44.059 7.2 268 2.3 102150 37
2011-01-27 13:17 51°43.557 2°43.982 8.5 81 2.4 102150 39
2011-01-27 13:18 51°43.441 2°43.905 6.8 268 2.4 102150 37
2011-01-27 13:19 51°43.322 2°43.832 6.5 266 2.6 102140 39
2011-01-27 13:20 51°43.204 2°43.756 5 268 2.6 102150 39
2011-01-27 13:21 51°43.086 2°43.685 5.7 281 2.6 102150 39
2011-01-27 13:22 51°42.968 2°43.616 5.2 264 2.6 102140 38
2011-01-27 13:23 51°42.851 2°43.543 5.8 263 2.6 102140 39
2011-01-27 13:24 51°42.733 2°43.482 6.7 286 2.5 102130 39
2011-01-27 13:25 51°42.615 2°43.436 6.7 263 2.5 102140 38
2011-01-27 13:26 51°42.495 2°43.39 6.5 262 2.5 102130 38
2011-01-27 13:27 51°42.375 2°43.341 6.3 264 2.5 102130 36
2011-01-27 13:28 51°42.256 2°43.292 8.6 280 2.5 102130 38
2011-01-27 13:29 51°42.139 2°43.241 10.1 260 2.6 102130 39
2011-01-27 13:30 51°42.022 2°43.187 6.8 282 2.7 102120 40
2011-01-27 13:31 51°41.904 2°43.134 10.5 261 2.7 102130 38
2011-01-27 13:32 51°41.786 2°43.081 7.2 265 2.7 102120 38
2011-01-27 13:33 51°41.668 2°43.025 8.6 287 2.7 102120 39
2011-01-27 13:34 51°41.549 2°42.972 9.7 260 2.6 102120 37
2011-01-27 13:35 51°41.431 2°42.923 6.6 281 2.7 102120 36
2011-01-27 13:36 51°41.312 2°42.868 5.2 263 2.7 102120 37
2011-01-27 13:37 51°41.191 2°42.815 6.5 286 2.7 102120 38
2011-01-27 13:38 51°41.071 2°42.766 7.5 262 2.6 102130 38
2011-01-27 13:39 51°40.95 2°42.715 8.2 282 2.7 102120 39
2011-01-27 13:40 51°40.831 2°42.66 7.1 265 2.7 102120 38
2011-01-27 13:41 51°40.714 2°42.603 5.3 264 2.7 102120 37
2011-01-27 13:42 51°40.597 2°42.543 8.2 262 2.7 102120 38
2011-01-27 13:43 51°40.48 2°42.479 5.3 263 2.7 102120 38
2011-01-27 13:44 51°40.362 2°42.412 9.2 260 2.6 102110 38
2011-01-27 13:45 51°40.244 2°42.351 6.8 263 2.7 102110 38
2011-01-27 13:46 51°40.125 2°42.286 6.1 279 2.6 102110 38
2011-01-27 13:47 51°40.008 2°42.224 8.5 285 2.6 102110 38
2011-01-27 13:48 51°39.89 2°42.164 7.6 261 2.6 102110 38
2011-01-27 13:49 51°39.773 2°42.102 6 267 2.6 102110 39
2011-01-27 13:50 51°39.655 2°42.036 6.2 265 2.6 102120 40
2011-01-27 13:51 51°39.536 2°41.974 5.4 264 2.5 102120 37
2011-01-27 13:52 51°39.417 2°41.909 5.3 268 2.6 102120 39
2011-01-27 13:53 51°39.3 2°41.84 7.5 261 2.7 102120 39
2011-01-27 13:54 51°39.184 2°41.778 8.2 263 2.7 102130 38
2011-01-27 13:55 51°39.066 2°41.717 6.9 262 2.7 102120 38
2011-01-27 13:56 51°38.947 2°41.655 7.4 262 2.6 102120 39
2011-01-27 13:57 51°38.827 2°41.587 5.6 263 2.6 102120 37
2011-01-27 13:58 51°38.708 2°41.511 5 265 2.6 102120 39
2011-01-27 13:59 51°38.589 2°41.435 4.2 265 2.6 102120 38
2011-01-27 14:00 51°38.454 2°41.365 8.7 257 2.6 102120 38
2011-01-27 14:01 51°38.308 2°41.285 8.1 258 2.7 102110 38
2011-01-27 14:02 51°38.168 2°41.212 6.7 261 2.7 102110 38
2011-01-27 14:03 51°38.032 2°41.157 7.3 263 2.7 102110 39
2011-01-27 14:04 51°37.896 2°41.12 9 256 2.6 102110 38
2011-01-27 14:05 51°37.761 2°41.083 11.4 260 2.8 102110 39
2011-01-27 14:06 51°37.627 2°41.043 8.9 249 2.7 102100 38
2011-01-27 14:07 51°37.493 2°41.016 10.7 256 2.8 102110 37
2011-01-27 14:08 51°37.357 2°40.986 7.3 263 2.8 102100 38
2011-01-27 14:09 51°37.223 2°40.96 7.6 261 2.7 102110 37
2011-01-27 14:10 51°37.089 2°40.909 7.4 260 2.7 102120 37
2011-01-27 14:11 51°36.958 2°40.821 5.8 264 2.7 102120 38
2011-01-27 14:12 51°36.828 2°40.732 7.9 257 2.6 102120 37
2011-01-27 14:13 51°36.698 2°40.645 5.6 264 2.7 102130 37
2011-01-27 14:14 51°36.569 2°40.558 5.5 263 2.7 102120 38
2011-01-27 14:15 51°36.439 2°40.473 5.1 265 2.6 102120 37
2011-01-27 14:16 51°36.309 2°40.391 4.7 266 2.5 102130 38
2011-01-27 14:17 51°36.182 2°40.311 5.4 265 2.5 102120 38
2011-01-27 14:18 51°36.053 2°40.234 5.5 265 2.6 102120 38
2011-01-27 14:19 51°35.926 2°40.153 6.5 268 2.4 102130 37
2011-01-27 14:20 51°35.799 2°40.08 7.1 262 2.4 102130 38
2011-01-27 14:21 51°35.682 2°40.002 5.1 267 2.5 102120 37
2011-01-27 14:22 51°35.571 2°39.935 6.2 264 2.6 102120 39
2011-01-27 14:23 51°35.479 2°39.882 7.2 266 2.5 102120 36
2011-01-27 14:24 51°35.401 2°39.833 8.1 268 2.5 102110 36
2011-01-27 14:25 51°35.33 2°39.789 5.5 263 2.4 102120 38
2011-01-27 14:26 51°35.26 2°39.747 7.1 270 2.4 102120 38
2011-01-27 14:27 51°35.177 2°39.7 5.4 262 2.4 102140 38
2011-01-27 14:28 51°35.049 2°39.714 10.3 19 2.3 102110 36
2011-01-27 14:29 51°34.876 2°39.784 11.4 24 2.4 102110 38
2011-01-27 14:30 51°34.675 2°39.866 10.6 21 2.5 102130 38
2011-01-27 14:31 51°34.46 2°39.942 13.1 24 2.5 102080 35
2011-01-27 14:32 51°34.242 2°40.026 12 24 2.5 102080 37
2011-01-27 14:33 51°34.021 2°40.1 10.3 23 2.5 102090 37
2011-01-27 14:34 51°33.8 2°40.172 11.5 249 2.5 102090 37
2011-01-27 14:35 51°33.58 2°40.24 9.8 23 2.6 102080 37
2011-01-27 14:36 51°33.359 2°40.302 12 21 2.7 102090 37
2011-01-27 14:37 51°33.141 2°40.368 9.8 20 2.6 102090 37
2011-01-27 14:38 51°32.92 2°40.437 12.4 22 2.8 102080 38
2011-01-27 14:39 51°32.697 2°40.505 9.8 19 2.7 102080 37
2011-01-27 14:40 51°32.476 2°40.579 10.9 20 2.7 102090 37
2011-01-27 14:41 51°32.255 2°40.653 11.6 24 2.7 102080 37
2011-01-27 14:42 51°32.037 2°40.737 12.6 20 2.7 102070 36
2011-01-27 14:43 51°31.824 2°40.84 12.1 20 2.7 102080 36
2011-01-27 14:44 51°31.61 2°40.937 15.5 21 2.7 102090 36
2011-01-27 14:45 51°31.397 2°41.029 11.7 26 2.8 102070 36
2011-01-27 14:46 51°31.189 2°41.123 9.8 243 2.7 102070 36
2011-01-27 14:47 51°30.985 2°41.223 10.2 25 2.6 102060 35
2011-01-27 14:48 51°30.788 2°41.345 10.3 287 2.6 102060 35
2011-01-27 14:49 51°30.588 2°41.458 10.6 285 2.6 102050 35
2011-01-27 14:50 51°30.39 2°41.573 13 282 2.6 102050 37
2011-01-27 14:51 51°30.192 2°41.684 11.9 284 2.5 102060 36
2011-01-27 14:52 51°29.991 2°41.799 12.6 287 2.6 102050 37
2011-01-27 14:53 51°29.791 2°41.908 15.4 279 2.6 102050 36
2011-01-27 14:54 51°29.59 2°42.027 10.1 282 2.6 102060 36
2011-01-27 14:55 51°29.392 2°42.147 9.5 280 2.6 102060 36
2011-01-27 14:56 51°29.19 2°42.258 12.8 284 2.6 102050 37
2011-01-27 14:57 51°28.999 2°42.397 11.8 284 2.5 102030 35
2011-01-27 14:58 51°28.805 2°42.542 12.8 287 2.5 102040 35
2011-01-27 14:59 51°28.612 2°42.685 14.1 285 2.5 102050 36
2011-01-27 15:00 51°28.419 2°42.834 10.9 281 2.5 102060 37
2011-01-27 15:01 51°28.225 2°42.979 10.9 278 2.5 102050 37
2011-01-27 15:02 51°28.031 2°43.122 11.4 282 2.6 102040 37
2011-01-27 15:03 51°27.838 2°43.265 10.7 278 2.6 102050 36
2011-01-27 15:04 51°27.645 2°43.394 15.7 283 2.6 102060 36
2011-01-27 15:05 51°27.456 2°43.532 13.8 287 2.5 102050 36
2011-01-27 15:06 51°27.267 2°43.67 10.2 282 2.5 102060 36
2011-01-27 15:07 51°27.075 2°43.801 14.4 287 2.5 102050 36
2011-01-27 15:08 51°26.883 2°43.936 13.2 283 2.5 102060 36
2011-01-27 15:09 51°26.689 2°44.068 12.1 284 2.5 102060 36
2011-01-27 15:10 51°26.497 2°44.198 15.3 280 2.5 102050 36
2011-01-27 15:11 51°26.305 2°44.336 14.1 -999 2.5 102050 35
2011-01-27 15:12 51°26.114 2°44.472 12.6 -999 2.5 102040 36
2011-01-27 15:13 51°25.92 2°44.606 9.9 280 2.5 102070 35
2011-01-27 15:14 51°25.726 2°44.751 10.2 -999 2.5 102050 36
2011-01-27 15:15 51°25.532 2°44.893 16.4 282 2.5 102050 36
2011-01-27 15:16 51°25.338 2°45.033 10.4 -999 2.4 102050 36
2011-01-27 15:17 51°25.146 2°45.173 15 285 2.4 102050 36
2011-01-27 15:18 51°24.956 2°45.315 12.6 -999 2.4 102070 35
2011-01-27 15:19 51°24.775 2°45.467 11.7 284 2.4 102070 35
2011-01-27 15:20 51°24.595 2°45.621 11 -999 2.4 102060 35
2011-01-27 15:21 51°24.413 2°45.774 10.6 278 2.4 102050 35
2011-01-27 15:22 51°24.234 2°45.932 12.1 -999 2.4 102040 35
2011-01-27 15:23 51°24.054 2°46.089 12.1 283 2.4 102050 36
2011-01-27 15:24 51°23.873 2°46.243 11.1 286 2.5 102060 35
2011-01-27 15:25 51°23.696 2°46.403 13.5 -999 2.4 102060 35
2011-01-27 15:26 51°23.516 2°46.555 11.2 -999 2.4 102060 35
2011-01-27 15:27 51°23.335 2°46.712 13.3 287 2.4 102050 34
2011-01-27 15:28 51°23.149 2°46.858 9.3 -999 2.4 102060 36
2011-01-27 15:29 51°22.938 2°46.919 11 282 2.5 102060 37
2011-01-27 15:30 51°22.721 2°46.956 9.8 287 2.5 102080 37
2011-01-27 15:31 51°22.504 2°47.016 8.7 -999 2.5 102060 36
2011-01-27 15:32 51°22.293 2°47.102 11.2 -999 2.5 102060 36
2011-01-27 15:33 51°22.093 2°47.226 11 282 2.5 102060 36
2011-01-27 15:34 51°21.914 2°47.405 12 -999 2.5 102060 36
2011-01-27 15:35 51°21.737 2°47.587 15 282 2.6 102060 35
2011-01-27 15:36 51°21.557 2°47.755 10.3 287 2.6 102060 37
2011-01-27 15:37 51°21.381 2°47.92 11.3 283 2.6 102070 37
2011-01-27 15:38 51°21.205 2°48.078 12.7 281 2.5 102050 36
2011-01-27 15:39 51°21.028 2°48.237 13.2 282 2.5 102060 35
2011-01-27 15:40 51°20.854 2°48.405 12.6 280 2.5 102040 35
2011-01-27 15:41 51°20.678 2°48.568 14 287 2.4 102050 35
2011-01-27 15:42 51°20.505 2°48.74 10.9 282 2.4 102040 35
2011-01-27 15:43 51°20.327 2°48.912 12.1 285 2.5 102050 35
2011-01-27 15:44 51°20.147 2°49.082 10.5 281 2.4 102050 35
2011-01-27 15:45 51°19.972 2°49.259 10.4 -999 2.4 102060 36
2011-01-27 15:46 51°19.794 2°49.433 12 284 2.4 102040 36
2011-01-27 15:47 51°19.619 2°49.613 14.6 281 2.4 102050 36
2011-01-27 15:48 51°19.439 2°49.797 13.8 282 2.5 102050 36
2011-01-27 15:49 51°19.26 2°49.988 10.4 -999 2.5 102050 36
2011-01-27 15:50 51°19.083 2°50.181 13.3 279 2.5 102060 36
2011-01-27 15:51 51°18.9 2°50.371 12.1 280 2.4 102030 35
2011-01-27 15:52 51°18.719 2°50.565 11.5 24 2.5 102040 37
2011-01-27 15:53 51°18.537 2°50.765 14 287 2.5 102050 36
2011-01-27 15:54 51°18.355 2°50.962 13.6 25 2.5 102050 37
2011-01-27 15:55 51°18.176 2°51.164 11.9 281 2.4 102050 36
2011-01-27 15:56 51°17.998 2°51.369 12.6 -999 2.5 102040 36
2011-01-27 15:57 51°17.824 2°51.579 14.9 21 2.5 102050 37
2011-01-27 15:58 51°17.651 2°51.785 12.5 284 2.5 102050 37
2011-01-27 15:59 51°17.475 2°51.988 11.5 22 2.5 102030 35
2011-01-27 16:00 51°17.277 2°52.139 12.1 -999 2.5 102050 37
2011-01-27 16:01 51°17.082 2°52.293 10.2 26 2.4 102040 36
2011-01-27 16:02 51°16.887 2°52.458 12.2 -999 2.4 102050 35
2011-01-27 16:03 51°16.692 2°52.612 13.7 279 2.4 102050 35
2011-01-27 16:04 51°16.498 2°52.773 11.5 281 2.4 102030 35
2011-01-27 16:05 51°16.306 2°52.933 12.9 287 2.4 102040 35
2011-01-27 16:06 51°16.121 2°53.112 11.9 -999 2.5 102060 35
2011-01-27 16:07 51°15.937 2°53.291 13.3 283 2.5 102050 35
2011-01-27 16:08 51°15.761 2°53.477 12.5 27 2.5 102050 35
2011-01-27 16:09 51°15.596 2°53.667 16 286 2.4 102050 35
2011-01-27 16:10 51°15.447 2°53.861 15.7 -999 2.4 102050 33
2011-01-27 16:11 51°15.299 2°54.051 15.1 287 2.4 102050 34
2011-01-27 16:12 51°15.153 2°54.234 16 -999 2.4 102040 34
2011-01-27 16:13 51°15.007 2°54.399 15.4 -999 2.4 102040 35
2011-01-27 16:14 51°14.869 2°54.581 11.4 285 2.4 102050 35
2011-01-27 16:15 51°14.727 2°54.763 13.7 -999 2.3 102040 34
2011-01-27 16:16 51°14.589 2°54.934 9.7 287 2.4 102050 35
2011-01-27 16:17 51°14.445 2°55.098 10.3 280 2.4 102060 35
2011-01-27 16:18 51°14.297 2°55.257 9.2 285 2.2 102060 35
2011-01-27 16:19 51°14.166 2°55.377 7.5 -999 2.2 102080 34
2011-01-27 16:20 51°14.047 2°55.466 -999 283 2 102090 33
2011-01-27 16:21 51°13.942 2°55.539 -999 22 2 102090 34
2011-01-27 16:22 51°13.842 2°55.615 -999 -999 2 102090 34
2011-01-27 16:23 51°13.764 2°55.701 -999 23 1.9 102090 33
2011-01-27 16:24 51°13.712 2°55.797 -999 -999 1.9 102090 35
2011-01-27 16:25 51°13.679 2°55.887 -999 283 1.8 102090 35
2011-01-27 16:26 51°13.665 2°55.953 -999 -999 1.7 102090 36